Brunswick, GA

3:16 AM EDT on September 30, 2016 (GMT -0400)
Glynco Jetport

Weather History for KBQK - June, 2014

Change the Weather History Date:

Wednesday, June 4, 2014

  Actual Average Record
Temperature  
Mean Temperature 74 °F -  
Max Temperature 87 °F 88 °F 101 °F (1985)
Min Temperature 62 °F 69 °F 57 °F (1980)
Cooling Degree Days 10    
Growing Degree Days 24 (Base 50)    
Moisture  
Dew Point 64 °F    
Average Humidity 67    
Maximum Humidity 100    
Minimum Humidity 40    
Precipitation  
Precipitation 0.00 in - - ()
Sea Level Pressure  
Sea Level Pressure 29.98 in    
Wind  
Wind Speed 3 mph (SSW)    
Max Wind Speed 13 mph    
Max Gust Speed 18 mph    
Visibility 10 miles    
Events      
Averages and records for this station are not official NWS values.
T = Trace of Precipitation, MM = Missing Value Source: NWS Daily Summary

Daily Weather History Graph

Daily Weather History Graph

Search for Another Location

Airport or City:

Trip Planner

Search our weather history database for the weather conditions in past years. The results will help you decide how hot, cold, wet, or windy it might be!

Date:

Astronomy

Jun. 04, 2014 Rise Set
Actual Time 6:21 AM EDT 8:26 PM EDT
Civil Twilight 5:54 AM EDT 8:54 PM EDT
Nautical Twilight 5:20 AM EDT 9:28 PM EDT
Astronomical Twilight 4:44 AM EDT 10:04 PM EDT
Moon 12:22 PM EDT (6/4) 12:40 AM EDT (6/4)
Length of Visible Light 15h 00m
Length of Day
14h 05m
Waxing Crescent, 39% of the Moon is Illuminated
Jun 4
Waxing Crescent
Jun 5
First Quarter
Jun 13
Full
Jun 19
Last Quarter
Jun 27
New

Hourly Weather History & Observations

Time (EDT) Temp. Heat Index Dew Point Humidity Pressure Visibility Wind Dir Wind Speed Gust Speed Precip Events Conditions
12:10 AM 73.4 °F - 64.4 °F 73% 30.03 in 10.0 mi South 3.5 mph - N/A   Clear
12:30 AM 73.4 °F - 64.4 °F 73% 30.03 in 10.0 mi SSW 3.5 mph - N/A   Clear
12:50 AM 68.0 °F - 62.6 °F 83% 30.03 in 10.0 mi Calm Calm - N/A   Clear
1:10 AM 68.0 °F - 62.6 °F 83% 30.02 in 10.0 mi Calm Calm - N/A   Clear
1:30 AM 68.0 °F - 62.6 °F 83% 30.02 in 10.0 mi Calm Calm - N/A   Clear
1:50 AM 68.0 °F - 64.4 °F 88% 30.02 in 10.0 mi SSW 4.6 mph - N/A   Clear
2:10 AM 69.8 °F - 62.6 °F 78% 30.02 in 10.0 mi Calm Calm - N/A   Clear
2:30 AM 68.0 °F - 62.6 °F 83% 30.01 in 10.0 mi Calm Calm - N/A   Clear
2:50 AM 66.2 °F - 64.4 °F 94% 30.01 in 10.0 mi Calm Calm - N/A   Clear
3:10 AM 66.2 °F - 62.6 °F 88% 30.01 in 10.0 mi Calm Calm - N/A   Clear
3:30 AM 66.2 °F - 64.4 °F 94% 30.01 in 10.0 mi Calm Calm - N/A   Clear
3:50 AM 66.2 °F - 64.4 °F 94% 30.00 in 10.0 mi Calm Calm - N/A   Clear
4:10 AM 66.2 °F - 64.4 °F 94% 30.01 in 10.0 mi Calm Calm - N/A   Clear
4:30 AM 66.2 °F - 64.4 °F 94% 30.01 in 10.0 mi Calm Calm - N/A   Clear
4:50 AM 64.4 °F - 62.6 °F 94% 30.00 in 10.0 mi Calm Calm - N/A   Clear
5:10 AM 64.4 °F - 62.6 °F 94% 30.01 in 10.0 mi Calm Calm - N/A   Clear
5:30 AM 64.4 °F - 62.6 °F 94% 30.01 in 10.0 mi Calm Calm - N/A   Scattered Clouds
5:50 AM 64.4 °F - 62.6 °F 94% 30.00 in 10.0 mi Calm Calm - N/A   Scattered Clouds
6:10 AM 62.6 °F - 62.6 °F 100% 30.01 in 10.0 mi Calm Calm - N/A   Scattered Clouds
6:30 AM 64.4 °F - 62.6 °F 94% 30.02 in 10.0 mi Calm Calm - N/A   Mostly Cloudy
6:50 AM 64.4 °F - 62.6 °F 94% 30.02 in 10.0 mi Calm Calm - N/A   Overcast
7:10 AM 66.2 °F - 64.4 °F 94% 30.03 in 10.0 mi Calm Calm - N/A   Scattered Clouds
7:30 AM 69.8 °F - 64.4 °F 83% 30.03 in 10.0 mi West 3.5 mph - N/A   Clear
7:50 AM 69.8 °F - 64.4 °F 83% 30.04 in 10.0 mi West 4.6 mph - N/A   Clear
8:10 AM 71.6 °F - 64.4 °F 78% 30.04 in 10.0 mi West 5.8 mph - N/A   Clear
8:30 AM 73.4 °F - 64.4 °F 73% 30.04 in 10.0 mi West 4.6 mph - N/A   Clear
8:50 AM 75.2 °F - 62.6 °F 65% 30.04 in 10.0 mi WSW 6.9 mph - N/A   Clear
9:10 AM 77.0 °F - 60.8 °F 57% 30.04 in 10.0 mi WSW 6.9 mph - N/A   Clear
9:30 AM 78.8 °F - 60.8 °F 54% 30.03 in 10.0 mi WSW 4.6 mph - N/A   Clear
9:50 AM 78.8 °F - 62.6 °F 57% 30.03 in 10.0 mi West 6.9 mph - N/A   Clear
10:10 AM 80.6 °F 81.8 °F 62.6 °F 54% 30.02 in 10.0 mi West 6.9 mph - N/A   Clear
10:30 AM 80.6 °F 81.8 °F 62.6 °F 54% 30.02 in 10.0 mi WNW 5.8 mph - N/A   Clear
10:50 AM 82.4 °F 83.9 °F 64.4 °F 54% 30.01 in 10.0 mi WSW 3.5 mph - N/A   Clear
11:10 AM 82.4 °F 83.9 °F 64.4 °F 54% 30.01 in 10.0 mi WNW 4.6 mph - N/A   Clear
11:30 AM 84.2 °F 85.6 °F 64.4 °F 51% 30.01 in 10.0 mi NW 4.6 mph - N/A   Clear
11:50 AM 84.2 °F 85.6 °F 64.4 °F 51% 30.00 in 10.0 mi WNW 4.6 mph - N/A   Clear
12:10 PM 86.0 °F 86.6 °F 62.6 °F 45% 30.00 in 10.0 mi NW 3.5 mph - N/A   Scattered Clouds
12:30 PM 86.0 °F 86.6 °F 62.6 °F 45% 29.99 in 10.0 mi Calm Calm - N/A   Clear
12:50 PM 87.8 °F 88.5 °F 62.6 °F 43% 29.99 in 10.0 mi Calm Calm - N/A   Scattered Clouds
1:10 PM 86.0 °F 86.6 °F 62.6 °F 45% 29.99 in 10.0 mi Calm Calm - N/A   Mostly Cloudy
1:30 PM 87.8 °F 88.5 °F 62.6 °F 43% 29.99 in 10.0 mi South 4.6 mph - N/A   Mostly Cloudy
1:50 PM 87.8 °F 88.5 °F 62.6 °F 43% 29.98 in 10.0 mi South 4.6 mph - N/A   Scattered Clouds
2:10 PM 87.8 °F 87.6 °F 60.8 °F 40% 29.98 in 10.0 mi WSW 3.5 mph - N/A   Mostly Cloudy
2:30 PM 87.8 °F 88.5 °F 62.6 °F 43% 29.98 in 10.0 mi Calm Calm - N/A   Overcast
2:50 PM 86.0 °F 86.6 °F 62.6 °F 45% 29.98 in 10.0 mi Calm Calm - N/A   Overcast
3:10 PM 86.0 °F 86.1 °F 60.8 °F 43% 29.97 in 10.0 mi Calm Calm - N/A   Overcast
3:30 PM 86.0 °F 88.2 °F 66.2 °F 51% 29.96 in 10.0 mi SE 6.9 mph - N/A   Mostly Cloudy
3:50 PM 86.0 °F 88.2 °F 66.2 °F 51% 29.95 in 10.0 mi South 6.9 mph - N/A   Scattered Clouds
4:10 PM 87.8 °F 90.4 °F 66.2 °F 49% 29.94 in 10.0 mi ESE 9.2 mph - N/A   Clear
4:30 PM 84.2 °F 85.6 °F 64.4 °F 51% 29.94 in 10.0 mi ESE 8.1 mph - N/A   Scattered Clouds
4:50 PM 82.4 °F 83.9 °F 64.4 °F 54% 29.94 in 10.0 mi ESE 9.2 mph - N/A   Mostly Cloudy
5:10 PM 86.0 °F 88.2 °F 66.2 °F 51% 29.93 in 10.0 mi SSE 9.2 mph - N/A   Scattered Clouds
5:30 PM 86.0 °F 87.3 °F 64.4 °F 48% 29.93 in 10.0 mi SE 12.7 mph 18.4 mph N/A   Clear
5:50 PM 84.2 °F 85.6 °F 64.4 °F 51% 29.92 in 10.0 mi SSE 10.4 mph - N/A   Clear
6:10 PM 82.4 °F 83.9 °F 64.4 °F 54% 29.92 in 10.0 mi SSE 12.7 mph - N/A   Clear
6:30 PM 82.4 °F 83.9 °F 64.4 °F 54% 29.92 in 10.0 mi SSE 11.5 mph - N/A   Clear
6:50 PM 82.4 °F 83.9 °F 64.4 °F 54% 29.93 in 10.0 mi SSE 11.5 mph 18.4 mph N/A   Clear
7:10 PM 82.4 °F 83.9 °F 64.4 °F 54% 29.92 in 10.0 mi SSE 11.5 mph 17.3 mph N/A   Clear
7:30 PM 80.6 °F 82.3 °F 64.4 °F 58% 29.92 in 10.0 mi SSE 10.4 mph 17.3 mph N/A   Clear
7:50 PM 80.6 °F 82.7 °F 66.2 °F 61% 29.93 in 10.0 mi South 9.2 mph - N/A   Clear
8:10 PM 78.8 °F - 66.2 °F 65% 29.92 in 10.0 mi South 8.1 mph - N/A   Clear
8:30 PM 78.8 °F - 64.4 °F 61% 29.93 in 10.0 mi South 6.9 mph - N/A   Clear
8:50 PM 78.8 °F - 64.4 °F 61% 29.93 in 10.0 mi South 8.1 mph - N/A   Clear
9:10 PM 77.0 °F - 64.4 °F 65% 29.93 in 10.0 mi South 10.4 mph - N/A   Clear
9:30 PM 77.0 °F - 64.4 °F 65% 29.93 in 10.0 mi South 6.9 mph - N/A   Clear
9:50 PM 77.0 °F - 64.4 °F 65% 29.94 in 10.0 mi South 6.9 mph - N/A   Clear
10:10 PM 77.0 °F - 64.4 °F 65% 29.94 in 10.0 mi South 6.9 mph - N/A   Clear
10:30 PM 77.0 °F - 64.4 °F 65% 29.95 in 10.0 mi South 5.8 mph - N/A   Clear
10:50 PM 77.0 °F - 64.4 °F 65% 29.95 in 10.0 mi South 10.4 mph - N/A   Clear
11:10 PM 77.0 °F - 64.4 °F 65% 29.95 in 10.0 mi SSW 4.6 mph - N/A   Clear
11:30 PM 75.2 °F - 66.2 °F 73% 29.96 in 10.0 mi SSW 6.9 mph - N/A   Clear
11:50 PM 75.2 °F - 64.4 °F 69% 29.96 in 10.0 mi SSW 6.9 mph - N/A   Clear